Wind_Speed
89 89 87 86 85 87 87 89 89 87 85 81 78 81 83 84 83 81 77 74 73 72 70 67 67 68 66 65 64 61 61 62 60 57 53 50 49 49 48 47 45 42 40 40 38 37 39 41 40 39 38 36 35 35 33 32 33 31 27 26 25 24 24 23 22 22 22 20 19 19 18 18 16 15 15 15 14 13 12 11 12 13 13 14 15 16 16 16
91 90 89 87 86 86 86 88 88 87 87 83 76 76 81 83 83 80 77 76 74 73 72 70 69 69 68 66 66 65 64 64 63 60 55 51 51 50 50 49 47 44 42 41 40 37 38 40 41 39 37 37 37 35 34 34 34 32 28 26 27 26 26 24 22 21 21 21 20 19 19 18 17 16 16 16 15 14 13 12 12 13 12 13 14 15 16 17
92 91 90 89 87 87 87 86 87 87 88 85 77 73 77 81 82 79 75 74 72 70 72 71 70 69 69 68 67 68 67 66 66 63 58 54 52 51 50 50 49 47 43 42 41 38 37 40 43 41 40 40 40 39 37 36 35 33 29 28 28 27 26 25 22 21 21 21 20 20 19 19 18 17 17 17 17 16 14 13 12 13 12 12 14 15 15 16
93 92 91 90 89 88 88 86 85 86 88 87 81 72 71 77 81 79 75 75 73 71 72 71 71 69 69 68 68 69 68 69 67 62 60 57 54 52 51 50 50 49 45 42 42 40 38 39 44 44 44 43 41 41 40 39 37 35 32 30 28 28 28 26 23 21 21 22 22 21 21 20 18 18 19 19 19 17 14 12 13 13 12 12 13 15 15 15
94 93 93 92 90 89 88 86 83 85 86 86 84 76 69 72 76 78 77 78 77 74 73 71 71 71 69 69 68 69 70 70 66 62 62 58 55 53 51 51 50 49 47 44 43 41 39 39 44 46 46 45 43 42 42 42 40 36 33 31 29 29 28 27 24 22 21 23 23 23 22 21 20 20 20 20 20 17 14 13 14 14 13 13 14 15 15 15
94 94 94 93 92 90 88 87 84 84 84 83 85 79 71 69 70 74 77 78 77 76 74 72 71 70 70 69 69 69 70 69 64 62 62 59 57 55 53 52 51 50 49 46 43 41 40 40 43 47 48 48 46 44 42 42 41 38 35 33 32 29 28 27 25 23 22 23 24 24 24 22 22 22 21 21 20 18 16 15 15 15 15 15 14 14 15 15
94 93 94 93 92 91 89 88 85 83 83 82 85 82 74 71 68 69 74 76 77 76 75 73 71 70 70 70 70 71 70 68 64 62 62 60 58 56 54 53 52 51 51 48 45 42 41 41 42 45 47 49 48 46 43 40 41 39 36 36 35 32 29 28 27 25 23 23 25 25 25 24 23 22 21 21 20 19 18 17 16 16 17 16 14 14 15 16
92 91 92 93 92 92 90 89 86 84 83 80 83 83 77 74 69 66 71 73 76 77 76 74 72 71 70 71 72 73 72 69 65 63 62 61 59 57 56 55 54 53 52 50 45 41 40 42 43 43 45 48 48 47 45 42 41 41 38 37 38 36 32 29 29 28 25 24 26 27 26 25 24 23 23 21 19 19 19 18 17 17 18 16 15 15 16 16
88 87 89 91 92 92 91 89 87 85 85 81 80 79 76 76 70 64 68 72 75 76 75 73 72 72 71 70 72 74 72 68 66 64 63 62 60 59 57 56 55 54 53 51 48 44 42 43 43 42 43 45 47 48 47 45 44 43 40 38 38 39 36 32 30 30 27 26 26 28 28 26 24 23 23 21 18 19 20 19 18 18 18 17 17 17 17 17
82 83 86 89 90 91 90 88 88 87 87 86 84 78 74 78 72 64 65 68 72 74 72 71 71 72 72 72 75 75 70 66 66 65 63 63 61 60 58 57 55 54 53 52 50 46 43 42 43 44 44 44 46 48 48 47 46 45 42 40 40 41 40 36 33 31 29 27 27 29 30 27 25 24 24 21 20 21 21 21 20 19 19 18 19 19 18 18
75 78 79 83 85 87 87 84 85 89 89 89 89 81 75 77 72 66 65 64 68 70 68 68 68 71 73 74 76 76 69 67 67 65 64 63 61 60 59 57 56 54 53 52 50 46 42 42 43 45 46 45 45 46 49 48 47 47 45 43 43 43 43 40 36 33 31 28 28 30 30 28 25 23 25 23 22 22 22 22 22 21 20 19 20 20 20 19
68 70 70 73 75 79 81 78 82 90 91 89 89 83 77 77 72 66 65 64 65 68 68 70 70 69 73 74 76 74 69 68 68 66 66 64 62 61 60 59 57 55 53 52 51 46 42 42 45 47 47 46 44 45 48 49 46 46 46 44 43 43 43 42 39 36 32 30 29 29 30 28 24 24 27 26 24 24 23 23 23 22 21 20 21 21 22 21
63 63 63 66 70 75 78 75 79 91 93 91 90 82 76 77 73 67 65 64 63 65 68 71 71 69 71 74 74 73 69 68 69 67 67 65 64 63 61 60 59 57 55 53 53 49 44 43 45 48 50 49 46 45 47 49 47 44 45 45 42 41 41 42 41 37 34 33 31 30 29 26 23 27 30 27 25 25 23 23 23 22 21 21 22 22 23 23
60 60 61 67 70 73 74 72 79 92 94 94 92 82 74 75 74 68 66 65 59 61 66 70 72 68 69 73 72 71 69 70 71 69 68 66 65 64 62 61 60 58 56 55 55 53 49 46 47 50 53 52 48 46 46 48 49 47 46 45 43 41 39 39 41 39 36 34 32 31 28 24 25 30 31 27 25 25 24 24 24 23 23 23 24 24 24 25
57 60 64 67 70 71 71 70 78 93 96 96 94 83 75 75 75 70 67 67 57 53 60 69 75 70 68 73 73 71 69 71 73 71 69 67 65 65 64 62 61 59 58 56 56 57 56 53 52 52 53 53 50 48 47 47 49 49 48 47 44 43 40 39 42 41 38 37 34 33 27 23 27 32 31 27 25 25 26 26 25 25 24 24 25 25 25 26
56 61 65 65 66 67 68 69 77 92 97 96 94 86 78 78 80 73 69 73 58 46 51 65 78 75 68 70 72 72 71 71 73 72 70 68 66 65 64 63 62 60 59 58 57 59 60 58 56 53 53 54 51 49 47 46 47 48 48 47 44 43 42 41 43 42 40 39 37 35 29 25 29 32 31 29 27 27 27 27 27 26 26 26 26 26 26 26
55 59 62 62 62 64 65 67 77 90 96 97 93 87 82 81 84 77 73 79 66 50 53 63 73 73 69 69 70 71 70 70 72 72 71 69 68 67 66 65 64 62 60 59 59 60 61 62 59 53 53 54 52 50 48 46 46 46 46 47 44 43 42 41 43 43 42 41 40 37 31 28 30 32 32 31 30 29 29 29 29 28 28 27 28 27 26 27
55 57 58 59 60 61 62 65 76 89 94 96 91 85 84 83 85 80 77 81 70 58 60 66 71 75 75 71 67 66 66 68 70 71 71 70 69 68 67 66 65 63 62 62 60 60 62 63 62 57 54 54 53 51 49 46 44 42 42 42 43 44 42 40 43 45 45 45 44 40 33 30 31 33 32 32 32 31 31 32 31 29 29 28 29 28 28 28
53 56 57 59 59 59 59 62 76 89 94 97 92 84 86 87 86 82 79 81 74 65 67 73 75 75 71 65 62 62 63 67 69 69 71 72 71 69 69 68 66 65 64 64 63 62 63 63 64 61 56 54 53 51 49 47 44 42 41 40 41 44 44 41 42 46 49 48 47 44 37 33 33 34 33 33 34 34 33 33 32 31 30 30 30 30 30 29
51 55 56 56 55 55 57 61 76 90 97 99 93 85 84 87 88 84 82 82 75 69 69 74 73 68 64 61 61 62 64 68 70 70 70 71 72 70 70 70 69 68 66 65 64 63 63 63 63 61 57 54 52 52 51 49 47 46 44 42 40 42 44 43 41 42 45 47 48 46 41 35 34 36 36 33 34 35 35 34 33 33 32 32 32 32 31 30
50 54 56 53 51 52 55 61 76 92 99 101 97 87 81 83 87 82 80 80 74 71 70 71 72 71 69 67 64 62 65 68 69 70 70 70 73 72 71 71 70 71 70 68 67 64 64 64 62 59 57 54 52 53 53 53 51 49 46 43 42 41 40 42 43 43 42 42 43 44 44 38 35 38 39 36 34 35 36 35 34 34 34 33 33 33 32 33
50 52 54 51 49 50 53 61 77 92 101 105 100 89 78 77 82 78 75 78 74 70 69 68 71 75 76 74 70 67 67 69 69 71 71 71 73 74 72 72 71 71 70 71 70 67 67 64 61 59 57 54 53 54 55 55 54 51 47 44 43 42 39 39 42 44 44 43 40 41 43 40 36 39 41 39 36 34 36 37 36 36 35 34 33 33 34 35
49 48 48 49 48 49 51 60 76 90 98 105 100 88 77 73 80 80 79 82 74 64 64 64 65 70 78 81 76 72 70 70 70 71 72 71 72 73 73 73 71 71 70 70 70 68 67 65 62 60 57 55 55 56 56 56 56 53 49 47 45 42 38 37 38 41 43 45 43 41 43 41 36 38 41 42 39 35 36 38 38 37 36 34 33 34 36 36
46 45 45 46 47 49 51 58 74 85 91 101 101 91 78 72 79 83 84 87 76 59 57 62 64 67 75 80 78 75 72 69 66 66 69 70 71 72 73 73 72 71 70 68 67 67 66 65 62 59 57 56 56 57 56 55 56 54 49 46 45 42 39 38 39 40 40 42 41 39 42 43 38 37 40 42 42 38 37 38 39 38 36 35 35 35 36 36
45 45 45 45 45 48 51 57 70 79 86 96 102 97 82 73 78 84 86 88 82 64 53 61 71 71 73 75 76 76 72 69 67 63 65 67 68 71 72 73 73 72 69 67 66 65 66 64 61 58 57 57 56 57 56 55 54 53 47 44 44 43 41 40 40 40 39 39 38 37 41 43 39 38 39 41 43 41 38 38 39 39 37 36 36 36 36 37
46 45 45 45 45 47 51 56 65 74 81 90 98 99 87 77 79 85 86 87 88 75 55 58 71 72 72 75 75 75 73 72 71 66 65 67 67 69 72 74 75 72 69 67 66 66 67 66 62 59 58 57 57 56 55 53 52 51 45 41 43 44 44 43 42 41 40 39 36 34 38 40 36 36 39 40 43 44 41 39 38 38 38 37 36 36 37 37
46 45 45 45 44 47 51 56 62 69 77 86 95 98 91 83 80 84 82 79 85 80 60 57 66 67 70 75 76 77 76 73 71 70 68 67 66 68 70 72 73 72 70 68 68 68 69 66 63 61 59 58 58 57 54 51 50 48 42 40 43 45 45 45 44 44 42 40 40 37 39 40 34 32 37 40 42 44 43 41 39 37 38 37 36 37 37 38
46 46 46 45 45 47 51 54 59 66 75 86 96 99 95 87 82 83 79 73 79 82 67 59 63 66 68 71 73 77 75 69 69 72 68 65 66 68 69 69 69 70 70 69 70 70 69 66 64 62 61 59 57 54 50 46 47 46 42 41 43 44 45 46 46 45 44 43 43 42 43 45 37 28 31 37 41 44 44 44 43 40 38 37 37 38 38 39
47 47 46 47 47 47 50 52 55 64 77 87 95 100 100 92 83 78 74 71 76 78 71 62 61 66 69 67 69 73 74 69 68 70 69 67 68 67 68 68 67 67 68 67 67 68 67 64 62 60 58 55 52 49 44 41 44 45 42 42 43 44 44 45 46 45 44 45 44 43 44 49 45 33 29 32 37 41 43 45 46 44 41 40 40 39 40 40
47 48 47 48 48 48 50 50 52 62 76 85 91 99 102 95 84 69 62 68 72 69 68 65 59 62 68 69 68 70 75 75 69 69 73 74 73 69 66 66 66 67 67 66 64 65 65 62 59 56 53 52 50 46 43 42 45 45 43 43 44 45 44 45 46 44 45 47 46 44 43 48 48 39 34 32 32 34 39 43 46 47 46 44 42 41 41 41
47 48 48 48 49 50 51 51 51 58 70 79 87 98 98 90 83 68 57 64 71 65 63 65 60 57 62 70 70 68 74 78 74 73 77 77 76 72 68 66 67 65 65 66 64 62 62 61 61 57 53 54 53 50 49 50 50 49 46 45 45 45 45 46 47 46 47 48 48 45 44 47 47 37 33 34 33 32 35 38 42 45 47 46 44 43 42 42
47 47 48 48 50 51 51 51 51 53 62 70 77 88 87 79 80 74 62 62 67 65 61 62 61 55 56 66 72 69 72 77 77 76 76 76 75 72 69 68 68 65 64 65 64 61 59 59 62 61 58 57 55 53 54 55 55 54 51 49 48 48 48 48 48 49 49 49 50 45 41 44 46 38 33 33 34 34 34 34 38 42 45 46 45 44 43 44
46 46 47 48 49 51 50 51 50 50 57 62 65 73 72 69 76 78 72 66 64 63 60 57 56 53 54 62 71 73 71 73 77 77 75 74 72 70 69 68 67 65 65 65 65 65 63 62 63 63 62 60 58 56 56 58 58 57 55 51 50 49 49 48 48 48 47 48 47 42 38 42 44 42 37 33 33 36 35 32 34 39 44 45 45 45 44 44
45 45 46 46 47 48 48 49 49 47 53 58 60 61 60 63 74 80 77 70 64 62 60 55 50 46 51 61 68 73 72 72 75 76 77 77 74 71 71 69 66 65 64 63 65 66 66 66 65 65 64 62 61 60 58 58 56 54 52 48 47 46 45 45 45 44 44 45 44 41 41 44 43 40 39 34 32 35 36 34 33 35 41 45 45 46 45 44
45 44 44 43 44 45 45 47 47 45 49 56 58 56 52 56 71 81 81 73 65 62 60 57 49 40 47 61 67 70 72 74 74 76 78 78 74 71 69 67 66 65 64 63 63 64 63 64 62 62 63 62 61 61 59 58 57 55 52 49 48 47 46 46 46 44 43 45 46 46 46 46 42 40 41 37 31 31 35 36 34 33 37 43 45 45 45 44
45 44 43 42 42 42 42 44 45 44 46 52 56 57 51 52 65 78 81 75 66 61 59 58 52 43 46 61 69 68 71 74 75 76 77 76 73 69 66 67 66 64 63 62 62 62 62 62 61 61 62 62 61 59 57 57 57 57 55 53 51 48 45 44 44 43 43 46 49 48 48 48 44 42 43 40 32 30 33 36 35 33 33 38 43 44 44 44
45 44 43 43 42 42 41 41 42 43 45 49 55 59 53 53 63 73 79 77 68 61 58 58 56 46 45 59 70 70 69 71 74 76 77 77 75 71 68 67 65 61 59 59 60 62 62 61 61 63 63 63 63 61 60 59 57 57 56 52 48 46 44 43 44 44 44 48 51 50 49 48 46 44 41 38 34 30 31 34 36 35 33 34 37 40 43 45
46 44 43 43 43 42 41 40 40 42 45 46 51 57 57 56 60 68 77 78 69 60 55 57 57 48 42 54 68 71 70 70 73 74 75 76 76 73 70 66 62 60 57 57 59 60 60 60 60 62 63 64 64 63 62 61 60 58 56 52 49 49 48 46 46 48 47 49 51 51 50 48 47 45 39 37 37 33 31 32 35 38 38 36 35 37 40 44
46 44 43 44 44 42 41 40 40 41 44 46 50 54 59 60 57 62 75 79 71 61 53 53 55 48 39 49 65 71 71 71 73 73 72 72 73 71 69 66 61 60 59 58 59 59 60 62 62 60 59 61 63 63 63 61 59 58 56 54 53 53 52 49 48 49 48 48 49 50 50 49 46 42 38 38 39 36 32 32 34 37 39 40 39 37 38 42
45 44 43 45 44 44 43 40 40 41 42 45 49 51 57 63 58 57 70 79 74 64 55 51 52 47 39 45 61 70 71 70 71 72 70 67 67 68 68 66 63 62 62 62 61 60 61 64 64 62 60 60 61 61 60 59 57 56 56 56 54 52 51 49 47 45 45 46 47 50 52 50 46 42 39 39 40 37 34 32 33 35 37 40 41 41 40 42
45 44 43 45 45 44 44 43 42 41 39 42 48 50 55 63 62 57 64 75 75 67 59 54 52 48 42 42 53 64 70 69 67 68 68 64 64 66 66 65 64 64 64 64 63 62 62 63 64 64 63 61 60 59 57 56 54 54 53 52 49 46 44 44 43 43 44 45 47 50 54 54 50 46 44 43 42 40 37 34 33 34 36 38 40 41 41 41
45 46 45 46 47 46 45 45 43 42 40 40 44 49 53 60 65 62 61 69 74 70 64 59 54 48 43 41 45 52 60 65 64 65 64 61 59 60 61 63 65 66 66 64 63 61 61 62 63 63 62 60 59 56 54 54 53 53 53 50 48 47 46 46 47 46 45 46 47 50 55 55 50 46 46 44 42 41 40 38 36 36 36 37 38 40 40 40
45 47 48 47 47 48 47 46 45 44 42 39 40 46 52 58 64 66 62 64 71 72 67 62 55 45 40 42 45 45 49 55 61 63 62 60 59 59 61 63 65 67 67 65 62 61 61 63 63 63 61 59 57 54 52 52 54 54 53 52 52 52 49 49 50 48 46 47 47 49 53 55 49 43 42 43 43 43 43 42 40 38 37 37 38 40 40 39
46 47 49 48 48 49 50 48 46 46 43 40 39 45 52 57 62 66 65 61 66 71 66 60 55 44 36 40 45 44 44 50 58 62 63 63 62 60 62 63 63 64 63 61 59 58 60 63 63 63 63 61 60 58 56 55 56 56 55 55 54 52 51 51 50 49 49 47 46 48 52 53 48 42 41 44 44 43 45 46 45 43 40 39 39 40 41 41
48 47 48 49 49 50 51 49 48 47 45 43 41 43 50 58 62 66 68 60 57 65 67 60 57 49 38 39 44 43 43 47 54 59 61 63 63 61 60 60 62 62 60 59 59 59 60 62 62 63 64 62 59 57 57 58 60 59 58 56 54 52 51 49 46 47 47 44 43 45 46 48 47 44 45 48 45 42 44 46 47 46 45 43 42 41 42 43
50 50 50 50 50 52 53 52 52 51 48 46 44 44 47 56 62 65 71 65 53 57 65 62 58 55 46 42 45 47 46 46 50 57 60 59 58 57 57 58 60 63 62 60 60 59 60 61 60 59 59 56 53 51 52 53 54 53 50 47 46 45 44 42 43 44 41 41 45 45 43 45 47 47 49 49 43 39 42 45 46 46 46 46 46 46 45 45
50 51 51 50 51 55 56 56 56 56 53 49 48 46 45 53 60 64 71 72 59 54 61 62 58 54 50 46 47 49 49 47 49 56 61 59 56 55 55 56 59 61 61 60 59 58 58 57 55 55 54 53 52 50 49 48 46 44 42 39 37 38 38 41 43 41 39 44 47 42 39 43 45 45 48 48 42 37 39 43 45 46 46 47 48 48 48 47
51 51 51 51 53 56 59 59 59 59 58 55 51 48 46 50 58 65 69 71 65 58 59 63 60 52 46 46 49 49 48 48 50 57 61 61 59 58 57 55 56 58 59 59 59 58 55 51 48 49 51 52 52 51 49 47 45 43 42 40 38 39 42 44 42 38 40 45 42 36 38 43 43 42 45 48 46 41 39 40 43 45 47 47 48 48 48 48
50 51 51 53 55 57 60 60 60 62 63 61 58 54 50 49 55 64 69 68 66 63 60 63 63 52 42 43 49 50 47 46 49 54 58 60 58 57 56 54 53 55 57 58 59 58 56 53 50 49 49 48 49 49 48 47 46 45 44 43 44 45 44 42 38 35 40 43 38 36 41 42 40 40 42 45 47 45 42 40 40 43 46 47 47 47 48 48
50 51 52 53 56 59 61 62 62 64 65 65 64 60 54 51 53 62 71 70 65 62 62 67 65 53 41 42 49 50 44 41 42 44 50 58 59 56 54 52 50 52 54 54 55 56 56 55 54 52 50 49 49 48 48 47 45 44 44 45 46 44 41 38 37 38 42 41 35 36 42 40 36 36 40 43 45 47 46 44 41 43 46 47 47 47 47 47
51 52 53 55 58 59 61 63 62 63 65 67 67 64 59 57 55 62 74 73 62 56 60 69 66 53 45 45 49 49 43 39 38 36 40 49 55 57 57 55 53 53 53 52 52 53 55 55 54 53 53 52 51 50 50 48 46 46 46 43 41 39 38 37 37 39 41 39 36 40 42 37 33 35 38 43 47 49 48 45 44 45 46 48 49 49 48 47
51 52 52 55 59 60 60 62 61 62 64 65 64 62 60 59 58 65 79 76 64 57 59 64 64 54 47 47 46 45 42 39 38 36 35 38 44 52 57 57 56 56 55 54 53 54 55 55 53 54 55 54 53 53 52 50 51 49 42 36 36 38 38 38 38 39 39 39 40 43 41 36 36 38 40 43 48 49 48 46 46 47 47 48 48 49 50 49
Wind_Direction
220 221 221 220 220 221 221 221 221 221 221 221 221 219 217 214 212 210 211 217 219 220 220 217 215 214 212 209 207 207 210 212 212 210 208 209 213 214 215 216 214 212 214 215 214 214 215 213 209 205 203 207 214 216 218 221 217 214 211 207 205 209 212 212 212 219 223 222 222 223 225 227 226 224 222 222 220 217 221 225 231 232 225 219 217 216 213 212
219 220 221 220 219 220 220 220 220 220 220 220 221 221 219 216 214 211 209 214 219 220 220 218 216 215 213 211 208 208 210 212 212 210 208 209 212 214 215 215 214 213 214 216 215 215 216 215 212 207 206 211 215 216 218 220 220 217 212 209 208 211 215 215 215 219 225 227 227 227 227 228 226 224 223 225 224 219 220 224 232 238 233 226 222 220 217 216
217 219 220 220 219 219 219 219 219 220 219 218 219 222 221 217 215 212 209 212 217 219 218 217 216 215 214 212 210 210 211 212 212 211 210 210 211 213 215 215 214 214 214 216 216 215 216 216 214 209 210 217 218 217 220 221 222 220 214 212 212 215 219 219 217 217 224 229 229 229 230 230 227 225 226 227 227 223 220 222 231 238 235 229 227 225 222 220
216 217 219 219 219 218 218 218 218 219 219 218 217 219 222 220 217 212 209 211 213 216 217 216 216 215 214 214 212 211 212 214 212 212 213 211 210 212 215 215 214 214 214 216 217 215 215 216 215 211 210 217 219 216 218 220 221 221 216 214 216 220 222 222 219 215 221 228 228 227 228 229 227 227 226 228 230 228 222 222 230 234 233 230 227 226 223 223
215 216 218 219 219 218 217 217 217 218 218 217 216 217 219 219 219 213 210 212 212 215 217 215 215 215 214 214 214 212 213 215 212 212 213 211 211 211 214 216 214 214 214 216 218 217 215 215 216 214 212 215 218 216 217 219 220 221 218 216 218 223 225 223 220 215 218 227 228 226 225 225 225 226 226 229 233 232 225 223 230 233 232 230 228 227 223 221
215 215 217 218 218 218 217 216 215 216 216 215 215 217 217 215 217 214 211 213 213 215 216 215 214 215 214 214 215 214 214 215 212 213 214 212 212 210 212 216 215 214 214 215 217 217 216 216 216 216 215 215 216 217 218 220 219 220 220 220 221 223 225 224 222 217 217 227 230 228 225 223 223 225 227 230 234 233 229 225 229 234 233 230 228 231 227 220
215 215 216 218 218 218 216 215 214 214 213 213 214 215 216 213 211 212 211 212 213 214 216 216 215 215 215 214 215 215 215 214 213 214 215 213 213 211 211 214 215 214 214 215 217 217 217 217 218 218 219 219 218 218 219 221 221 221 220 221 225 224 223 224 225 222 218 225 232 230 227 223 222 224 226 229 232 233 231 227 228 235 238 235 229 229 230 224
216 215 216 217 218 217 216 214 212 212 209 209 212 214 217 212 209 208 209 211 211 213 215 215 216 215 215 215 215 216 215 214 213 214 216 215 213 212 212 213 215 215 214 215 216 217 219 219 219 219 220 222 222 220 221 221 221 222 220 220 225 226 223 223 226 226 221 224 231 231 228 225 223 223 226 228 229 234 236 232 229 235 241 241 235 230 228 227
215 215 216 217 218 217 216 214 211 209 206 205 208 212 213 210 209 207 204 208 210 212 214 215 217 216 215 216 217 218 216 215 214 214 216 216 214 213 212 213 215 216 214 214 215 216 219 221 221 221 223 224 224 222 221 222 220 222 223 221 224 226 224 222 226 227 224 223 228 231 229 226 223 222 227 228 226 231 235 233 230 233 239 242 240 234 229 227
213 214 216 216 217 217 216 214 210 207 204 203 205 208 207 205 208 207 200 204 207 210 213 213 217 219 216 216 218 218 215 216 215 214 216 217 216 214 213 213 214 217 216 214 215 216 218 222 223 223 224 224 224 223 221 222 221 222 224 223 224 227 226 224 226 227 225 223 223 229 230 226 222 222 227 226 223 227 231 232 230 230 234 239 241 237 232 228
211 213 214 215 215 216 215 214 210 206 203 202 204 207 205 202 207 207 200 202 204 207 212 210 213 220 220 219 221 219 214 215 216 214 216 217 217 217 215 214 214 216 216 214 214 216 218 224 225 225 225 224 224 224 221 222 223 225 226 226 227 228 227 226 227 227 225 220 220 225 228 226 221 220 226 225 222 225 229 232 232 231 231 236 240 240 236 231
210 211 212 213 213 213 212 211 208 204 202 200 203 207 205 202 206 207 202 203 203 203 208 209 209 217 221 221 223 220 215 216 216 214 215 215 217 218 217 215 214 215 216 215 214 214 217 223 227 226 226 226 226 224 221 221 224 226 228 228 229 228 227 226 226 226 223 217 218 222 226 226 219 219 225 223 221 224 228 232 234 233 231 233 238 240 239 235
209 209 210 209 209 208 207 208 205 202 200 198 201 205 205 203 204 207 203 202 205 204 207 209 207 213 220 220 222 220 215 215 216 215 214 214 216 217 218 216 215 215 215 214 212 212 214 221 226 226 225 226 226 224 221 220 222 225 226 227 228 228 226 225 225 225 223 217 216 220 222 221 216 220 226 222 220 225 227 232 235 235 233 232 236 238 239 237
207 208 207 204 204 204 204 205 203 200 198 198 200 203 204 204 204 206 201 197 203 208 209 211 208 210 218 220 220 218 214 214 215 215 214 214 215 216 218 217 216 216 215 214 211 210 211 217 223 224 223 224 225 224 222 221 222 225 226 226 226 228 226 224 225 227 226 221 219 222 219 215 216 223 228 223 221 225 228 231 234 236 235 233 235 237 237 237
205 207 204 202 202 202 204 205 202 199 197 198 199 202 204 206 206 204 197 191 197 208 211 213 210 209 215 218 218 217 213 213 214 214 214 214 215 217 217 218 217 217 217 215 213 211 211 216 222 223 222 222 223 224 223 223 224 225 226 226 226 228 228 224 225 228 229 226 225 226 217 210 219 225 227 225 222 225 228 230 233 234 235 234 234 236 237 238
203 205 203 202 201 201 203 205 202 198 197 197 198 201 202 204 206 203 195 188 194 207 209 213 212 207 211 216 217 216 212 212 214 214 214 213 214 216 217 218 218 217 218 217 215 213 214 218 222 224 223 222 223 223 224 224 225 226 227 228 226 228 230 227 226 228 230 230 228 228 219 209 220 226 226 225 223 224 227 229 231 233 234 234 234 236 238 240
202 204 202 202 201 201 202 204 202 197 196 196 196 199 199 201 204 203 197 190 196 208 204 207 210 207 211 215 215 214 212 212 215 214 214 213 213 215 216 218 218 218 218 219 218 216 216 219 221 224 223 222 223 223 223 224 225 227 228 228 226 227 230 230 229 228 230 232 231 232 224 213 222 226 224 224 223 224 227 229 230 231 233 234 235 236 237 240
202 204 203 201 200 201 202 203 200 195 194 194 193 195 196 199 202 203 199 194 199 207 202 204 208 208 211 212 214 215 213 213 215 215 214 214 213 214 216 217 218 218 218 219 219 218 218 219 221 223 223 223 223 223 223 224 225 229 231 231 228 227 229 229 230 230 230 232 233 234 228 217 224 230 225 222 224 224 226 229 229 230 232 233 235 236 236 237
203 204 204 202 201 202 203 202 199 193 192 192 191 190 193 198 200 202 201 197 200 204 204 207 207 208 212 211 213 215 212 213 215 215 214 214 214 214 215 216 217 218 219 219 220 220 220 220 222 224 224 224 225 224 225 226 227 229 231 232 230 228 228 228 231 231 231 232 232 234 230 220 225 235 231 224 224 224 225 228 229 230 231 232 234 235 235 235
204 205 204 203 203 204 203 202 197 192 191 192 191 188 190 193 196 199 199 197 200 200 204 212 211 211 213 213 215 213 210 211 212 214 214 214 214 214 215 215 216 217 218 219 220 221 222 222 223 224 226 227 227 227 229 229 229 229 229 231 232 230 228 228 232 234 233 233 232 233 232 223 224 235 236 230 227 226 226 227 229 230 230 231 232 234 235 235
204 206 206 205 204 204 204 202 197 193 191 193 193 190 187 189 193 197 197 194 196 197 201 209 211 212 211 212 216 215 214 213 211 213 215 214 214 214 215 216 217 217 217 218 219 221 223 223 223 224 226 228 228 229 230 231 230 229 230 231 233 234 231 229 233 236 237 236 234 234 233 226 225 234 238 237 233 230 229 228 229 230 230 231 231 233 235 235
202 205 206 206 204 204 205 202 197 194 193 195 196 191 187 186 190 195 196 193 193 198 202 204 208 211 210 209 211 212 215 215 212 211 212 213 214 214 214 215 217 219 219 219 218 220 222 222 223 224 225 226 227 228 229 230 230 229 229 231 233 235 235 233 234 237 240 240 237 237 237 232 228 232 238 243 241 235 232 230 229 230 231 231 231 233 235 237
201 204 205 205 204 205 207 203 199 196 196 198 196 191 186 185 187 191 194 193 194 201 204 203 206 209 208 207 207 208 211 213 214 213 211 212 213 214 214 215 216 218 220 221 221 221 222 222 223 223 224 225 227 228 228 229 230 228 227 230 232 234 236 236 236 238 240 242 240 240 240 237 231 231 236 244 246 241 237 234 231 231 232 233 232 233 235 237
199 202 203 203 204 206 208 205 201 199 200 200 197 193 187 184 187 190 194 195 195 201 204 206 211 211 209 208 208 209 210 212 215 216 215 214 213 213 214 215 216 218 219 221 223 224 224 225 226 224 224 225 227 229 229 229 231 229 227 230 234 235 236 236 238 239 240 242 242 241 241 237 233 232 234 239 243 242 240 237 234 233 233 233 233 233 235 237
197 200 200 202 204 206 208 207 204 202 202 201 201 198 192 187 189 191 194 197 197 200 204 206 210 210 208 207 209 210 210 211 212 215 218 218 217 215 214 215 216 217 218 219 222 224 225 226 228 228 227 228 229 230 230 231 232 232 229 231 235 236 236 237 239 240 239 241 242 242 242 238 235 236 236 234 238 241 241 239 235 234 234 234 235 235 236 237
198 200 200 201 204 207 208 208 207 204 203 203 203 201 195 192 193 192 195 200 200 201 203 204 205 205 205 206 208 208 208 210 209 210 215 217 218 218 216 215 216 216 216 218 221 223 223 224 226 228 228 229 231 232 233 234 234 234 231 230 233 235 236 237 239 239 238 239 239 241 244 242 235 236 239 235 235 239 241 241 237 236 237 235 236 237 238 239
200 201 201 201 204 207 209 209 208 205 202 201 202 201 197 195 195 193 195 203 203 200 202 206 205 202 202 206 209 207 207 208 208 208 211 213 215 217 217 217 217 216 215 216 220 221 222 223 225 227 228 229 231 232 235 237 238 237 235 232 232 234 236 237 237 239 239 238 237 238 243 244 236 232 239 238 235 237 240 242 240 239 240 239 238 238 239 240
201 202 202 202 204 208 211 211 210 205 200 199 200 200 197 195 196 196 198 204 203 200 201 205 206 204 202 205 209 209 207 207 209 208 208 209 214 217 218 218 218 218 218 218 219 220 221 223 225 226 228 229 230 232 235 239 239 238 237 234 233 234 236 238 238 239 240 240 239 238 242 246 238 227 237 240 237 237 239 242 242 240 242 244 242 240 239 241
201 203 203 203 205 209 212 213 212 205 199 199 201 200 198 198 199 200 205 208 202 200 202 203 206 207 204 204 207 208 207 207 210 209 206 207 212 217 218 218 217 217 219 221 222 222 222 223 226 227 228 230 232 235 236 238 239 237 235 234 233 233 235 238 240 241 242 243 242 241 243 247 242 229 233 243 243 241 240 240 242 242 242 245 246 243 241 240
202 204 204 203 205 209 212 214 213 206 201 202 202 201 201 203 203 206 214 211 202 200 202 203 206 206 205 205 205 206 206 206 209 208 207 207 209 213 215 216 217 217 217 219 221 224 224 225 226 227 228 229 232 234 233 234 237 237 236 234 234 234 235 237 239 240 242 243 244 243 243 249 248 234 230 241 248 250 248 242 242 244 244 245 246 246 244 242
203 205 206 205 206 209 212 214 214 209 206 205 204 203 206 208 206 208 215 210 202 201 200 202 206 205 205 206 205 204 205 206 207 207 208 208 208 210 211 210 213 215 217 217 217 220 223 225 226 226 226 227 228 229 229 232 235 236 236 235 235 235 235 237 239 240 242 244 245 244 243 248 251 242 235 241 246 252 256 251 245 245 246 246 246 246 246 245
203 204 206 207 208 210 212 214 215 213 209 207 207 208 210 211 208 207 208 205 204 203 199 199 204 206 207 208 207 205 205 206 208 209 209 209 209 210 210 210 210 210 213 215 216 217 220 223 225 225 225 227 228 229 230 232 234 237 237 235 234 235 235 237 239 241 243 246 247 247 246 249 253 253 248 245 244 246 253 256 249 245 246 246 245 245 245 245
203 204 206 208 209 211 213 214 215 214 210 207 209 212 213 213 212 208 205 204 203 201 197 197 201 206 209 209 208 207 206 208 210 210 210 209 210 211 211 212 213 213 214 214 215 216 217 220 221 223 224 226 229 231 233 235 237 239 239 238 237 237 238 239 241 244 246 249 252 253 253 253 254 258 256 251 247 245 248 255 255 249 247 246 245 244 244 244
204 204 205 208 210 212 213 215 216 215 211 208 209 213 215 215 214 209 206 205 202 199 197 196 198 204 210 211 209 207 207 209 211 211 209 207 209 211 211 211 212 214 216 216 216 217 218 220 221 222 223 225 228 231 233 235 237 240 242 242 242 242 243 244 245 247 249 252 254 254 253 251 252 256 259 255 251 249 246 250 256 254 249 247 247 246 245 243
203 203 204 207 210 213 214 216 217 215 213 211 209 210 214 215 214 211 207 205 201 199 198 198 198 203 210 211 210 208 208 209 210 211 210 207 207 210 212 212 212 213 214 216 219 220 221 223 224 225 225 225 227 229 230 231 233 235 237 238 239 240 241 243 244 244 247 249 251 251 252 253 254 256 259 257 252 251 249 248 253 257 251 247 248 247 246 244
204 203 204 207 210 212 214 216 218 216 214 214 211 209 209 212 213 211 208 204 202 201 200 200 200 201 207 210 210 209 208 210 211 212 211 210 210 210 212 213 214 215 216 218 220 222 222 223 224 226 227 228 228 229 230 231 233 235 236 236 238 239 240 242 245 245 247 249 251 253 254 256 257 256 258 262 259 253 252 248 249 256 255 250 249 248 248 246
206 205 206 207 210 212 214 216 218 216 214 215 215 211 208 210 213 211 208 204 203 203 202 202 201 200 205 209 209 209 208 209 212 213 211 210 211 211 211 212 214 216 219 220 221 223 224 224 224 224 225 226 228 228 228 229 231 234 236 239 241 242 242 243 246 247 248 250 251 252 254 256 258 257 260 266 266 259 254 250 247 250 253 253 250 249 249 248
208 208 208 208 210 213 215 216 217 216 215 215 216 213 208 208 211 211 208 205 203 203 203 203 201 199 206 211 210 210 209 208 210 212 210 210 210 210 211 212 212 214 217 220 221 222 222 223 224 225 224 224 225 227 228 229 230 232 235 236 238 240 241 241 244 246 248 251 252 253 255 256 258 260 263 268 269 266 260 256 252 249 251 253 253 251 250 250
208 208 210 211 211 214 216 216 217 217 216 216 216 212 207 205 207 209 207 205 203 204 203 202 201 200 206 213 212 212 211 210 210 211 212 212 212 210 211 212 212 212 214 216 219 222 221 220 222 223 225 225 225 226 228 230 232 234 235 236 237 240 241 241 243 246 249 252 254 255 256 256 257 263 269 270 271 272 269 264 260 256 254 254 257 256 253 251
207 208 212 213 213 217 219 218 219 219 218 219 218 214 209 205 204 207 207 205 206 206 202 199 202 206 209 213 212 213 213 212 212 213 214 215 214 213 212 212 211 211 212 214 216 219 220 221 221 222 224 225 227 228 230 232 233 235 236 238 240 242 245 247 248 250 253 255 257 258 258 255 257 263 267 268 270 272 271 268 264 262 259 257 257 258 257 254
208 208 214 215 215 219 221 221 222 222 222 221 219 215 210 205 204 206 206 205 207 209 203 198 202 208 211 210 210 213 214 213 212 213 214 215 214 213 212 212 211 211 212 213 214 215 218 220 222 224 225 226 229 230 230 232 233 234 236 238 241 244 247 249 250 251 253 256 257 259 257 253 255 261 264 266 269 271 271 270 266 264 262 260 259 259 259 257
209 209 213 217 217 220 223 225 226 227 226 225 221 217 212 206 204 206 206 205 207 208 206 202 201 205 208 206 207 212 216 215 212 212 212 214 214 212 211 211 211 212 213 214 215 216 217 218 222 225 227 227 228 228 229 231 232 233 234 235 237 239 241 244 246 247 249 252 254 258 257 252 253 263 268 269 271 272 272 271 268 266 263 262 262 260 260 260
211 211 213 216 219 221 223 225 227 227 226 225 222 219 214 208 205 206 206 206 207 207 206 204 202 204 207 205 206 211 216 216 214 213 213 214 213 210 210 211 211 213 214 214 215 217 217 217 219 222 226 227 227 227 227 228 230 231 233 234 236 238 240 243 246 247 248 250 253 257 257 253 254 264 270 271 272 273 273 273 271 268 265 263 262 260 260 261
211 212 214 217 221 223 224 225 228 230 228 224 221 219 215 210 207 205 204 205 207 207 206 204 202 205 207 205 205 207 212 215 215 213 212 213 213 210 209 211 212 214 216 217 217 218 218 219 219 219 222 223 222 223 224 226 229 231 233 234 236 238 240 242 245 247 248 249 250 254 256 256 259 267 270 270 271 273 274 274 273 273 271 268 265 262 260 259
212 213 216 220 223 225 226 226 228 230 231 227 224 222 218 213 209 205 203 203 205 207 208 205 203 206 209 206 204 207 211 215 214 213 212 211 212 211 210 211 213 215 218 219 220 221 221 222 223 222 224 225 226 228 231 231 232 232 233 234 236 237 239 241 244 247 248 250 252 256 260 262 265 269 269 268 269 269 269 271 272 273 273 271 268 265 263 260
216 216 219 224 227 228 228 227 227 227 228 228 225 224 222 216 211 207 203 200 198 201 204 205 204 209 213 208 204 208 212 213 213 213 212 209 209 211 211 211 213 215 217 219 221 222 224 226 227 228 230 233 236 238 238 237 236 236 237 240 241 242 243 245 246 249 252 255 256 260 265 265 265 266 266 266 267 266 267 269 271 272 272 272 271 269 268 265
220 219 221 227 231 232 230 229 229 228 228 228 226 223 224 219 212 207 204 201 198 197 200 202 202 207 213 209 205 207 212 213 212 213 212 210 209 210 210 210 212 213 215 218 220 222 224 226 228 229 230 232 234 236 236 237 239 239 241 242 242 244 244 244 246 249 252 254 256 261 265 262 261 262 263 265 266 265 264 268 270 270 270 270 270 271 270 269
223 222 224 229 234 235 234 231 231 231 230 230 228 224 223 222 215 207 202 200 200 200 201 201 201 204 208 208 206 207 210 213 214 214 213 210 209 209 208 208 209 211 213 216 218 220 222 224 226 228 228 228 230 231 233 235 236 236 235 235 235 236 236 239 244 249 251 253 257 260 260 258 257 258 261 265 267 266 263 264 266 268 270 270 270 271 271 271
226 226 228 232 236 238 238 235 233 234 233 230 229 226 223 223 219 207 199 197 198 199 201 202 202 202 204 205 208 209 209 211 212 213 213 211 210 212 212 211 209 209 211 215 217 218 221 222 224 227 228 229 230 230 232 233 234 234 234 233 233 234 236 240 245 247 249 253 255 255 256 257 256 257 260 263 266 268 265 263 262 264 266 269 270 271 271 270
230 231 232 236 238 238 239 237 234 235 235 232 230 228 224 223 219 205 196 194 192 192 199 204 202 202 202 204 206 207 207 208 208 210 212 212 211 213 215 215 215 213 212 215 217 219 221 223 224 226 227 228 228 229 232 233 235 235 235 235 236 238 241 243 245 245 248 252 255 256 256 256 256 257 258 260 262 264 265 264 261 258 258 260 263 265 265 265
233 235 236 239 240 238 238 238 235 234 235 232 229 228 226 224 217 201 193 192 188 187 198 204 204 204 204 203 203 203 204 207 207 206 209 212 213 214 214 215 217 217 216 217 218 220 221 222 223 225 226 227 227 229 231 233 235 234 233 235 239 242 244 246 247 249 252 255 255 255 256 258 257 255 255 256 257 258 260 261 260 257 255 254 255 257 260 261
238 238 240 242 242 239 238 237 234 232 232 230 228 228 227 224 216 199 191 190 189 189 194 198 201 204 203 199 197 198 200 203 202 201 204 208 213 217 217 218 220 220 219 220 222 222 222 223 223 223 225 226 227 228 230 232 233 233 234 239 243 244 245 248 249 252 255 257 256 255 257 259 256 252 251 254 256 257 258 257 258 258 258 256 255 256 258 260
Height
5617 5624 5631 5639 5645 5651 5658 5664 5671 5679 5686 5692 5698 5704 5711 5718 5725 5732 5738 5742 5748 5753 5759 5764 5769 5774 5779 5784 5788 5792 5795 5798 5801 5805 5810 5814 5817 5819 5822 5824 5827 5830 5833 5835 5836 5840 5843 5844 5846 5848 5850 5852 5853 5856 5859 5861 5863 5865 5866 5868 5870 5871 5871 5872 5873 5874 5875 5877 5878 5878 5879 5880 5881 5882 5882 5883 5884 5885 5885 5886 5886 5887 5888 5888 5888 5889 5890 5891
5609 5616 5623 5631 5638 5644 5651 5657 5664 5672 5679 5687 5694 5699 5705 5712 5719 5726 5733 5737 5743 5748 5753 5759 5764 5769 5775 5779 5784 5787 5790 5793 5796 5801 5806 5811 5813 5816 5819 5821 5824 5827 5830 5833 5835 5838 5841 5843 5845 5847 5849 5850 5852 5854 5857 5859 5861 5863 5865 5866 5868 5869 5870 5871 5873 5874 5875 5877 5877 5878 5878 5879 5880 5881 5881 5882 5883 5884 5884 5885 5886 5886 5887 5888 5888 5888 5889 5890
5600 5607 5614 5622 5629 5636 5643 5650 5658 5665 5672 5681 5689 5695 5700 5707 5714 5722 5729 5734 5740 5745 5748 5753 5759 5764 5770 5775 5780 5783 5786 5788 5791 5797 5803 5807 5810 5812 5815 5818 5821 5825 5828 5831 5833 5836 5839 5841 5842 5844 5846 5848 5850 5853 5855 5857 5859 5861 5863 5864 5865 5867 5868 5870 5872 5873 5874 5875 5877 5878 5878 5879 5880 5881 5881 5881 5882 5883 5883 5884 5885 5886 5886 5887 5887 5888 5888 5889
5591 5599 5606 5613 5620 5628 5636 5644 5652 5659 5667 5675 5684 5690 5695 5701 5708 5717 5725 5729 5736 5740 5743 5748 5754 5759 5765 5770 5775 5778 5782 5783 5788 5795 5799 5803 5807 5810 5813 5816 5819 5822 5826 5828 5830 5833 5836 5838 5840 5841 5843 5845 5847 5850 5852 5855 5857 5859 5861 5862 5864 5865 5867 5868 5870 5872 5873 5874 5875 5876 5877 5878 5879 5880 5880 5880 5881 5882 5883 5884 5884 5884 5885 5886 5886 5887 5887 5888
5583 5590 5597 5604 5612 5620 5628 5637 5645 5653 5661 5670 5679 5685 5691 5697 5704 5713 5720 5724 5730 5735 5739 5743 5748 5754 5760 5765 5769 5774 5776 5778 5786 5792 5794 5799 5804 5807 5810 5813 5816 5820 5823 5825 5827 5831 5834 5836 5837 5839 5840 5842 5844 5847 5849 5852 5854 5857 5859 5860 5862 5863 5865 5867 5869 5870 5872 5872 5873 5874 5875 5876 5878 5878 5879 5879 5880 5882 5883 5884 5883 5884 5884 5885 5885 5886 5886 5887
5574 5582 5589 5596 5604 5613 5621 5630 5638 5646 5655 5664 5673 5680 5686 5693 5699 5707 5714 5719 5725 5731 5735 5739 5744 5749 5754 5760 5764 5768 5771 5776 5785 5789 5791 5796 5800 5804 5807 5809 5813 5817 5820 5822 5824 5828 5831 5833 5834 5836 5838 5840 5842 5845 5847 5850 5852 5855 5857 5858 5860 5862 5863 5865 5867 5869 5870 5871 5872 5872 5873 5874 5875 5876 5878 5878 5879 5881 5882 5883 5883 5883 5883 5883 5884 5885 5886 5886
5566 5574 5581 5589 5597 5604 5613 5622 5631 5640 5649 5658 5666 5674 5681 5688 5694 5701 5708 5714 5719 5725 5730 5734 5739 5744 5749 5754 5757 5761 5767 5775 5782 5786 5788 5793 5796 5800 5804 5806 5810 5813 5816 5819 5821 5824 5828 5830 5832 5835 5837 5838 5840 5843 5846 5848 5851 5853 5854 5856 5858 5860 5862 5863 5865 5867 5868 5869 5870 5871 5872 5873 5873 5875 5876 5877 5878 5880 5881 5882 5882 5882 5882 5883 5884 5885 5885 5886
5559 5567 5575 5582 5589 5596 5605 5615 5625 5634 5643 5652 5660 5669 5676 5683 5689 5695 5702 5708 5713 5720 5725 5729 5733 5738 5743 5747 5751 5756 5763 5771 5778 5782 5785 5789 5793 5797 5800 5803 5806 5809 5813 5816 5819 5822 5826 5828 5829 5832 5834 5836 5838 5841 5844 5846 5848 5850 5852 5854 5855 5857 5859 5861 5863 5864 5866 5867 5868 5869 5870 5871 5872 5873 5874 5875 5877 5878 5879 5881 5881 5882 5882 5883 5884 5884 5885 5885
5552 5561 5568 5575 5582 5590 5598 5608 5618 5627 5636 5646 5655 5665 5671 5678 5685 5690 5696 5702 5708 5714 5720 5726 5730 5734 5738 5743 5747 5752 5762 5770 5775 5778 5781 5784 5789 5793 5796 5800 5803 5806 5809 5813 5816 5819 5822 5824 5827 5829 5831 5833 5835 5838 5840 5842 5844 5847 5849 5852 5853 5854 5857 5859 5860 5862 5864 5865 5866 5867 5868 5869 5871 5872 5873 5874 5877 5877 5878 5879 5880 5880 5881 5882 5883 5883 5884 5884
5547 5555 5561 5568 5575 5583 5592 5601 5610 5620 5630 5640 5649 5659 5665 5672 5680 5685 5691 5697 5702 5710 5715 5722 5728 5729 5733 5736 5739 5748 5762 5767 5770 5775 5778 5781 5785 5789 5793 5797 5800 5803 5806 5810 5813 5816 5819 5822 5825 5826 5827 5829 5831 5834 5836 5838 5841 5844 5846 5848 5850 5851 5854 5856 5857 5859 5861 5863 5864 5864 5865 5868 5869 5871 5871 5873 5875 5875 5875 5876 5878 5879 5880 5881 5882 5883 5883 5884
5541 5549 5555 5562 5569 5577 5587 5595 5604 5614 5624 5634 5644 5654 5660 5668 5676 5681 5687 5692 5698 5705 5710 5719 5725 5725 5728 5732 5735 5747 5760 5761 5764 5771 5773 5778 5782 5785 5790 5793 5797 5800 5803 5807 5811 5814 5818 5821 5822 5823 5823 5825 5828 5831 5833 5835 5838 5841 5843 5845 5847 5848 5850 5853 5854 5856 5859 5860 5861 5862 5863 5865 5868 5869 5869 5870 5872 5872 5873 5874 5876 5877 5878 5880 5880 5882 5882 5883
5536 5544 5551 5558 5564 5572 5581 5589 5597 5607 5618 5629 5640 5649 5657 5664 5671 5677 5683 5689 5695 5700 5705 5713 5718 5721 5723 5726 5731 5744 5754 5754 5759 5764 5768 5773 5777 5780 5785 5789 5793 5796 5800 5804 5809 5812 5815 5818 5818 5819 5820 5822 5826 5828 5830 5832 5835 5838 5840 5842 5844 5845 5847 5850 5851 5853 5856 5857 5858 5859 5860 5863 5867 5868 5865 5867 5869 5870 5871 5872 5874 5875 5877 5878 5879 5880 5881 5882
5534 5541 5547 5553 5560 5567 5575 5582 5590 5600 5612 5624 5635 5644 5653 5660 5667 5674 5680 5687 5693 5697 5702 5707 5713 5716 5716 5720 5728 5738 5746 5749 5753 5758 5763 5768 5771 5775 5780 5784 5789 5792 5795 5800 5804 5808 5811 5813 5814 5815 5817 5819 5822 5824 5827 5830 5832 5834 5836 5839 5841 5842 5845 5847 5849 5851 5853 5855 5856 5857 5858 5862 5866 5864 5862 5865 5867 5868 5870 5871 5872 5874 5875 5876 5877 5878 5879 5880
5531 5537 5543 5549 5555 5562 5570 5577 5584 5594 5606 5619 5631 5640 5649 5656 5663 5671 5677 5685 5694 5698 5701 5703 5707 5710 5710 5717 5724 5730 5738 5742 5746 5753 5759 5764 5767 5771 5775 5780 5785 5788 5792 5795 5799 5803 5805 5808 5808 5810 5812 5815 5818 5820 5823 5826 5828 5831 5833 5835 5837 5839 5843 5846 5847 5849 5850 5853 5854 5855 5858 5862 5863 5860 5860 5864 5866 5867 5868 5869 5870 5872 5873 5875 5875 5876 5877 5878
5527 5533 5540 5545 5551 5559 5565 5572 5578 5588 5601 5614 5626 5634 5644 5653 5659 5667 5675 5682 5692 5696 5699 5700 5700 5702 5705 5710 5715 5723 5731 5734 5739 5747 5754 5760 5764 5767 5771 5776 5780 5785 5788 5791 5795 5798 5800 5802 5803 5805 5809 5812 5814 5816 5819 5822 5824 5827 5829 5832 5835 5837 5840 5843 5843 5845 5848 5850 5852 5853 5857 5860 5859 5858 5859 5863 5865 5865 5866 5866 5868 5869 5871 5872 5873 5875 5875 5876
5522 5528 5535 5541 5548 5554 5561 5567 5573 5583 5596 5608 5619 5629 5639 5647 5653 5663 5671 5678 5686 5689 5692 5691 5689 5695 5700 5703 5709 5716 5722 5728 5736 5743 5748 5754 5759 5763 5768 5771 5776 5780 5783 5787 5791 5794 5796 5798 5799 5802 5806 5809 5812 5814 5816 5819 5821 5824 5826 5829 5833 5834 5837 5839 5840 5842 5845 5847 5849 5850 5855 5858 5856 5856 5858 5860 5862 5863 5864 5864 5865 5866 5868 5870 5871 5873 5874 5875
5518 5523 5531 5537 5544 5550 5556 5562 5568 5578 5590 5602 5613 5625 5635 5642 5649 5659 5666 5672 5676 5677 5680 5683 5689 5696 5695 5696 5702 5708 5717 5725 5731 5737 5743 5749 5754 5758 5762 5766 5770 5775 5779 5782 5786 5789 5792 5794 5796 5799 5802 5806 5809 5811 5813 5816 5818 5820 5823 5826 5830 5832 5833 5835 5837 5839 5842 5843 5846 5848 5853 5856 5854 5853 5855 5857 5859 5860 5861 5862 5863 5864 5865 5867 5869 5870 5872 5873
5515 5520 5527 5533 5539 5545 5551 5558 5565 5574 5586 5598 5610 5621 5629 5635 5642 5651 5659 5665 5668 5671 5676 5677 5682 5683 5680 5687 5699 5708 5718 5724 5727 5733 5739 5744 5748 5753 5757 5761 5765 5770 5773 5776 5780 5784 5787 5790 5793 5795 5799 5802 5805 5808 5810 5813 5816 5819 5821 5824 5827 5829 5830 5832 5833 5835 5837 5840 5842 5845 5851 5854 5853 5851 5852 5854 5856 5857 5858 5859 5860 5861 5863 5865 5866 5868 5870 5871
5514 5517 5523 5529 5535 5541 5547 5554 5561 5571 5582 5592 5604 5614 5621 5628 5636 5643 5651 5656 5658 5662 5664 5661 5665 5671 5679 5694 5703 5708 5715 5719 5722 5727 5732 5738 5743 5748 5751 5755 5760 5764 5767 5771 5774 5778 5783 5786 5788 5791 5795 5799 5803 5806 5808 5811 5815 5817 5818 5820 5823 5825 5827 5829 5830 5831 5834 5836 5838 5842 5847 5852 5852 5850 5850 5852 5853 5854 5855 5856 5858 5859 5861 5862 5863 5865 5867 5868
5511 5515 5520 5526 5531 5538 5544 5551 5558 5568 5577 5587 5597 5604 5608 5614 5622 5629 5638 5646 5650 5655 5656 5658 5670 5680 5688 5696 5698 5702 5708 5711 5714 5720 5726 5732 5738 5742 5745 5749 5753 5756 5760 5766 5770 5774 5778 5781 5785 5789 5794 5798 5802 5804 5806 5808 5811 5812 5814 5816 5818 5821 5824 5827 5828 5829 5831 5833 5835 5838 5843 5848 5850 5848 5848 5850 5850 5851 5853 5854 5855 5857 5858 5859 5861 5862 5864 5866
5507 5512 5517 5524 5530 5536 5542 5548 5555 5564 5573 5582 5588 5593 5599 5607 5616 5627 5636 5643 5649 5652 5652 5658 5669 5675 5680 5687 5693 5700 5701 5703 5709 5715 5721 5726 5731 5734 5739 5743 5747 5750 5755 5760 5765 5769 5772 5776 5783 5788 5792 5796 5799 5801 5802 5804 5806 5809 5811 5814 5816 5818 5821 5825 5826 5827 5829 5831 5833 5836 5838 5845 5848 5846 5845 5847 5848 5850 5851 5852 5853 5854 5855 5856 5858 5860 5862 5863
5504 5509 5515 5522 5528 5534 5540 5546 5552 5560 5568 5574 5580 5588 5599 5609 5623 5635 5641 5643 5646 5646 5646 5651 5658 5664 5672 5679 5686 5691 5693 5697 5702 5706 5712 5719 5723 5727 5733 5739 5743 5749 5753 5755 5758 5762 5766 5773 5780 5785 5788 5791 5794 5796 5797 5799 5802 5805 5808 5811 5813 5815 5818 5822 5824 5825 5826 5828 5831 5833 5834 5840 5845 5844 5843 5844 5847 5849 5849 5849 5850 5851 5852 5854 5857 5858 5859 5859
5503 5509 5515 5521 5526 5531 5537 5543 5548 5555 5562 5567 5576 5587 5596 5606 5617 5625 5630 5636 5639 5640 5644 5648 5651 5657 5664 5668 5676 5682 5686 5691 5695 5699 5706 5712 5718 5724 5730 5735 5739 5744 5747 5751 5756 5760 5764 5771 5775 5779 5783 5786 5788 5790 5792 5795 5797 5801 5805 5808 5810 5813 5816 5819 5820 5822 5824 5824 5827 5829 5830 5834 5840 5841 5841 5842 5844 5847 5848 5847 5848 5849 5850 5852 5854 5855 5856 5857
5503 5508 5513 5518 5523 5528 5534 5539 5545 5551 5556 5564 5573 5583 5592 5602 5610 5616 5621 5626 5629 5634 5640 5645 5649 5654 5659 5667 5675 5679 5682 5688 5694 5700 5705 5709 5715 5720 5725 5731 5735 5738 5743 5750 5755 5759 5764 5768 5771 5775 5779 5781 5783 5785 5788 5792 5794 5797 5803 5807 5809 5812 5814 5815 5816 5818 5820 5821 5823 5825 5825 5828 5835 5837 5837 5838 5840 5843 5845 5845 5846 5846 5848 5850 5851 5852 5854 5856
5501 5506 5511 5516 5520 5525 5530 5536 5542 5547 5553 5561 5569 5579 5589 5598 5604 5611 5617 5620 5623 5629 5635 5638 5643 5649 5656 5664 5668 5673 5681 5686 5690 5698 5704 5709 5713 5716 5721 5726 5729 5734 5741 5748 5751 5754 5758 5763 5768 5772 5774 5777 5779 5781 5785 5789 5791 5794 5801 5806 5806 5808 5810 5812 5813 5814 5817 5818 5820 5822 5821 5824 5830 5832 5834 5835 5835 5838 5840 5841 5843 5844 5845 5847 5848 5850 5852 5853
5499 5503 5509 5513 5517 5522 5527 5532 5538 5543 5550 5557 5565 5575 5585 5593 5600 5607 5613 5616 5617 5622 5628 5631 5637 5645 5652 5656 5659 5668 5676 5677 5682 5692 5698 5704 5711 5714 5717 5719 5723 5730 5738 5743 5745 5748 5752 5757 5762 5766 5770 5773 5775 5778 5782 5785 5788 5792 5799 5802 5802 5804 5806 5808 5810 5811 5813 5815 5817 5819 5817 5819 5826 5829 5830 5831 5832 5834 5837 5838 5841 5842 5842 5844 5846 5848 5849 5850
5497 5502 5506 5511 5515 5520 5523 5528 5534 5540 5547 5554 5562 5571 5579 5588 5595 5603 5608 5608 5608 5616 5623 5625 5631 5641 5648 5650 5654 5660 5663 5667 5678 5686 5689 5697 5704 5708 5711 5715 5721 5728 5733 5736 5737 5741 5747 5753 5757 5761 5765 5768 5771 5775 5779 5782 5785 5790 5795 5797 5798 5800 5801 5804 5806 5806 5809 5811 5813 5815 5815 5814 5821 5826 5825 5827 5829 5831 5833 5835 5837 5840 5840 5842 5844 5845 5846 5848
5495 5500 5505 5510 5513 5517 5521 5526 5531 5538 5546 5552 5558 5566 5574 5582 5588 5595 5598 5596 5600 5610 5617 5621 5628 5637 5642 5646 5652 5656 5660 5670 5675 5677 5684 5693 5698 5702 5707 5713 5721 5727 5730 5731 5733 5739 5746 5750 5753 5758 5761 5764 5769 5773 5777 5780 5782 5787 5790 5791 5794 5796 5797 5799 5801 5803 5805 5807 5808 5812 5812 5809 5815 5824 5823 5823 5826 5827 5830 5832 5833 5836 5838 5839 5841 5842 5843 5844
5493 5498 5503 5507 5511 5515 5519 5524 5529 5536 5543 5548 5553 5560 5568 5575 5581 5586 5587 5588 5597 5607 5613 5619 5625 5630 5636 5641 5646 5651 5660 5667 5669 5674 5682 5686 5691 5697 5702 5709 5717 5722 5726 5730 5734 5739 5742 5746 5751 5755 5758 5764 5769 5771 5774 5776 5778 5782 5785 5787 5790 5792 5794 5796 5797 5800 5802 5802 5805 5809 5809 5805 5809 5820 5823 5821 5824 5826 5828 5829 5828 5831 5834 5835 5836 5838 5839 5841
5491 5495 5500 5505 5509 5513 5517 5521 5526 5532 5538 5542 5548 5555 5561 5566 5571 5576 5577 5581 5593 5602 5609 5616 5620 5624 5630 5634 5638 5644 5652 5657 5663 5672 5674 5675 5683 5691 5698 5706 5711 5714 5719 5724 5730 5735 5739 5744 5748 5751 5756 5761 5765 5767 5769 5771 5773 5777 5780 5783 5787 5788 5791 5792 5793 5796 5796 5797 5800 5804 5806 5803 5803 5814 5822 5821 5822 5824 5824 5825 5825 5826 5829 5831 5832 5834 5835 5837
5489 5493 5497 5502 5505 5509 5513 5518 5522 5528 5534 5538 5543 5548 5551 5556 5562 5567 5571 5578 5589 5597 5603 5610 5615 5620 5624 5627 5632 5639 5645 5651 5658 5663 5664 5670 5678 5683 5690 5695 5698 5705 5712 5717 5723 5729 5734 5738 5742 5747 5753 5756 5758 5761 5763 5766 5768 5771 5775 5779 5782 5784 5786 5787 5788 5791 5791 5793 5796 5799 5803 5802 5799 5809 5820 5821 5821 5821 5819 5820 5822 5823 5824 5826 5828 5830 5831 5833
5487 5491 5495 5498 5501 5505 5509 5513 5517 5523 5529 5534 5538 5540 5543 5548 5552 5557 5567 5576 5583 5590 5598 5605 5611 5616 5621 5625 5630 5636 5641 5646 5652 5657 5661 5668 5673 5679 5685 5687 5690 5697 5703 5710 5719 5726 5730 5733 5737 5744 5749 5751 5752 5755 5758 5762 5764 5766 5770 5774 5777 5779 5780 5782 5784 5785 5787 5789 5790 5795 5800 5800 5798 5805 5815 5818 5818 5818 5816 5816 5817 5819 5819 5821 5823 5824 5826 5828
5485 5489 5493 5495 5499 5502 5505 5509 5513 5518 5524 5529 5532 5534 5538 5540 5542 5551 5564 5571 5576 5585 5596 5603 5609 5614 5617 5621 5625 5632 5638 5643 5648 5654 5660 5666 5671 5678 5683 5686 5692 5697 5701 5708 5715 5719 5723 5726 5731 5738 5743 5746 5749 5752 5756 5759 5761 5763 5766 5769 5772 5774 5776 5778 5780 5782 5784 5786 5787 5793 5797 5797 5798 5801 5808 5813 5814 5814 5814 5813 5812 5814 5814 5815 5817 5818 5821 5823
5483 5487 5490 5494 5496 5499 5502 5506 5509 5514 5519 5523 5526 5530 5532 5533 5539 5552 5561 5567 5575 5586 5594 5600 5605 5610 5613 5616 5621 5627 5634 5639 5644 5649 5654 5659 5664 5670 5674 5680 5688 5694 5701 5707 5709 5713 5717 5721 5728 5734 5739 5743 5746 5749 5753 5755 5758 5760 5763 5766 5769 5771 5774 5776 5778 5780 5782 5783 5784 5788 5791 5792 5796 5798 5802 5806 5809 5809 5810 5810 5809 5809 5810 5810 5812 5813 5816 5818
5480 5485 5489 5492 5494 5496 5500 5502 5504 5509 5513 5517 5522 5524 5526 5530 5540 5550 5557 5565 5576 5585 5591 5596 5601 5605 5609 5613 5618 5625 5629 5633 5639 5644 5648 5653 5658 5663 5670 5678 5683 5688 5696 5702 5706 5713 5718 5722 5731 5735 5737 5741 5741 5744 5747 5749 5750 5753 5756 5759 5763 5767 5769 5771 5773 5776 5777 5777 5778 5782 5785 5788 5793 5796 5796 5799 5804 5805 5805 5806 5806 5805 5806 5806 5807 5808 5810 5812
5478 5483 5487 5489 5491 5494 5497 5499 5500 5504 5509 5513 5515 5518 5522 5529 5538 5547 5556 5567 5576 5582 5587 5592 5595 5600 5604 5608 5614 5619 5624 5629 5635 5639 5645 5653 5658 5662 5670 5676 5680 5685 5692 5699 5704 5710 5714 5721 5727 5730 5733 5736 5736 5740 5743 5744 5746 5749 5751 5754 5759 5764 5765 5767 5769 5772 5773 5773 5774 5778 5782 5785 5789 5791 5791 5794 5799 5802 5801 5802 5803 5802 5802 5802 5803 5803 5804 5806
5476 5480 5484 5486 5488 5491 5494 5496 5497 5500 5504 5507 5509 5515 5523 5529 5536 5545 5555 5565 5573 5579 5584 5587 5590 5596 5600 5605 5609 5613 5619 5626 5630 5634 5641 5648 5653 5659 5667 5672 5678 5686 5693 5698 5702 5705 5711 5717 5721 5723 5725 5727 5730 5734 5736 5738 5741 5744 5748 5755 5759 5759 5761 5764 5765 5766 5768 5768 5771 5775 5777 5780 5783 5787 5789 5790 5792 5796 5797 5798 5799 5799 5799 5799 5799 5799 5799 5801
5473 5477 5480 5482 5485 5488 5490 5492 5494 5496 5499 5502 5507 5516 5524 5529 5536 5544 5553 5561 5568 5574 5579 5583 5589 5594 5599 5603 5606 5609 5616 5621 5625 5630 5637 5642 5647 5656 5663 5670 5678 5685 5690 5695 5698 5701 5707 5712 5714 5716 5718 5720 5724 5726 5728 5731 5736 5741 5746 5751 5752 5751 5755 5759 5759 5761 5764 5764 5767 5770 5773 5776 5780 5783 5786 5787 5786 5788 5792 5794 5795 5795 5796 5795 5795 5795 5795 5796
5471 5475 5476 5478 5482 5484 5486 5489 5492 5494 5496 5500 5506 5514 5521 5529 5536 5543 5551 5558 5564 5569 5576 5582 5588 5592 5597 5602 5605 5609 5615 5618 5622 5628 5634 5640 5647 5655 5662 5668 5674 5679 5684 5688 5692 5697 5702 5704 5706 5711 5714 5715 5717 5719 5723 5729 5735 5739 5743 5745 5745 5747 5750 5752 5754 5757 5759 5761 5763 5765 5767 5772 5777 5780 5782 5782 5782 5783 5786 5789 5790 5791 5792 5792 5792 5792 5792 5791
5469 5472 5472 5475 5479 5480 5482 5486 5488 5490 5494 5501 5507 5515 5523 5530 5537 5542 5548 5555 5561 5566 5572 5579 5584 5589 5594 5599 5604 5609 5613 5617 5622 5628 5634 5641 5648 5654 5658 5664 5669 5674 5678 5681 5685 5691 5694 5696 5701 5705 5707 5709 5713 5718 5724 5729 5733 5736 5738 5740 5742 5745 5746 5749 5752 5754 5756 5758 5760 5761 5763 5769 5775 5778 5778 5778 5778 5778 5780 5782 5784 5786 5787 5788 5788 5788 5788 5787
5466 5469 5469 5471 5474 5475 5478 5481 5483 5488 5495 5501 5507 5514 5521 5527 5534 5539 5544 5550 5557 5563 5568 5573 5579 5586 5591 5596 5601 5606 5608 5613 5620 5626 5632 5638 5643 5649 5654 5660 5665 5669 5672 5675 5679 5684 5688 5691 5696 5699 5701 5706 5712 5717 5722 5726 5729 5732 5733 5736 5740 5742 5744 5745 5747 5751 5753 5754 5756 5757 5758 5764 5772 5774 5774 5775 5775 5774 5776 5777 5779 5781 5781 5782 5783 5783 5784 5783
5463 5466 5465 5466 5469 5472 5475 5478 5481 5487 5493 5499 5506 5512 5517 5524 5530 5535 5540 5546 5552 5557 5563 5569 5574 5581 5587 5592 5598 5602 5605 5611 5618 5623 5629 5636 5641 5647 5653 5658 5662 5665 5668 5672 5675 5680 5684 5688 5691 5695 5699 5704 5709 5713 5717 5720 5723 5725 5727 5732 5734 5735 5738 5739 5741 5745 5748 5749 5751 5752 5752 5759 5770 5771 5769 5770 5771 5770 5771 5772 5773 5775 5777 5778 5778 5779 5780 5779
5459 5461 5461 5463 5465 5468 5471 5474 5477 5482 5488 5496 5503 5508 5513 5519 5525 5530 5536 5541 5546 5552 5558 5565 5572 5578 5583 5588 5593 5598 5603 5610 5615 5621 5627 5633 5639 5644 5648 5653 5657 5660 5663 5667 5672 5676 5680 5683 5686 5690 5694 5698 5703 5708 5711 5714 5715 5718 5723 5727 5728 5730 5734 5734 5735 5741 5742 5744 5747 5746 5746 5756 5767 5768 5766 5766 5766 5765 5764 5765 5767 5769 5772 5773 5774 5775 5776 5776
5454 5457 5460 5461 5462 5464 5468 5472 5476 5481 5488 5494 5497 5500 5506 5511 5518 5525 5531 5537 5543 5550 5556 5563 5571 5577 5580 5584 5588 5595 5601 5605 5610 5616 5622 5628 5633 5639 5644 5648 5653 5657 5661 5665 5670 5674 5676 5677 5680 5684 5686 5689 5695 5699 5703 5707 5711 5715 5719 5721 5723 5727 5729 5728 5732 5735 5735 5739 5743 5739 5743 5755 5762 5763 5763 5762 5761 5761 5759 5758 5760 5762 5765 5767 5769 5770 5770 5771
5451 5455 5457 5458 5458 5461 5466 5472 5476 5480 5486 5491 5494 5497 5501 5506 5512 5520 5529 5536 5543 5549 5555 5562 5569 5574 5577 5581 5586 5592 5596 5601 5606 5613 5618 5624 5630 5636 5641 5645 5651 5656 5660 5664 5668 5671 5673 5674 5676 5678 5679 5683 5689 5695 5700 5705 5708 5710 5712 5715 5720 5723 5722 5725 5729 5728 5729 5736 5738 5736 5744 5755 5756 5757 5758 5756 5757 5757 5753 5753 5755 5756 5757 5759 5761 5763 5764 5764
5446 5451 5453 5454 5455 5457 5463 5468 5472 5476 5481 5486 5490 5494 5497 5503 5511 5519 5526 5533 5539 5544 5550 5559 5565 5569 5572 5576 5582 5587 5592 5597 5604 5610 5616 5621 5627 5633 5638 5642 5647 5651 5656 5660 5663 5667 5669 5671 5675 5678 5682 5687 5693 5698 5702 5705 5706 5708 5712 5717 5719 5719 5720 5723 5723 5724 5730 5734 5732 5736 5746 5750 5750 5752 5752 5749 5752 5753 5749 5748 5750 5751 5751 5752 5753 5755 5756 5757
5443 5448 5452 5452 5452 5454 5459 5464 5467 5472 5477 5481 5486 5490 5494 5500 5508 5515 5520 5528 5535 5541 5547 5554 5559 5563 5568 5573 5578 5584 5589 5594 5600 5606 5613 5619 5624 5629 5633 5637 5641 5646 5651 5655 5659 5662 5665 5669 5674 5679 5682 5686 5691 5695 5698 5701 5704 5708 5711 5712 5713 5715 5716 5716 5717 5724 5730 5726 5727 5737 5742 5742 5745 5748 5745 5742 5746 5748 5746 5745 5745 5744 5745 5746 5746 5747 5748 5749
5440 5446 5449 5449 5448 5450 5454 5459 5465 5469 5473 5478 5483 5487 5491 5496 5502 5508 5515 5523 5532 5538 5543 5549 5554 5560 5566 5572 5577 5582 5587 5592 5596 5602 5607 5613 5619 5623 5626 5631 5635 5641 5646 5650 5654 5658 5662 5667 5672 5675 5677 5680 5684 5688 5692 5695 5698 5700 5702 5703 5706 5707 5708 5710 5715 5723 5723 5718 5726 5737 5735 5735 5742 5743 5740 5738 5739 5741 5743 5742 5741 5740 5739 5740 5741 5741 5742 5742
5437 5442 5446 5446 5445 5448 5451 5457 5463 5464 5466 5473 5478 5481 5486 5491 5497 5507 5516 5522 5529 5535 5540 5545 5552 5560 5565 5570 5575 5579 5584 5589 5594 5600 5606 5611 5616 5620 5623 5627 5631 5636 5641 5645 5650 5654 5659 5664 5667 5669 5673 5676 5680 5683 5686 5689 5691 5693 5696 5698 5699 5701 5704 5709 5715 5719 5716 5715 5724 5730 5727 5730 5738 5739 5737 5735 5733 5733 5736 5737 5738 5737 5735 5735 5736 5735 5736 5736
5433 5437 5441 5439 5439 5443 5447 5451 5456 5457 5459 5465 5470 5475 5483 5488 5494 5504 5513 5520 5527 5533 5538 5546 5554 5561 5564 5566 5571 5577 5585 5592 5597 5602 5607 5609 5613 5618 5622 5627 5631 5635 5639 5642 5646 5651 5655 5658 5661 5664 5668 5670 5673 5677 5680 5683 5686 5689 5691 5693 5696 5699 5703 5707 5711 5711 5709 5712 5721 5724 5721 5726 5734 5735 5732 5731 5729 5727 5727 5728 5731 5731 5730 5730 5730 5729 5730 5730
5427 5430 5432 5430 5430 5436 5441 5443 5449 5451 5451 5455 5462 5470 5478 5484 5491 5501 5510 5519 5529 5535 5542 5551 5557 5561 5562 5564 5569 5577 5585 5590 5595 5600 5604 5608 5613 5616 5620 5624 5628 5631 5635 5638 5642 5646 5648 5651 5655 5659 5662 5664 5668 5671 5673 5677 5680 5681 5684 5690 5694 5697 5699 5702 5706 5706 5706 5711 5717 5717 5716 5724 5731 5729 5727 5726 5723 5721 5722 5722 5721 5721 5721 5723 5723 5724 5724 5724
5420 5423 5425 5423 5423 5428 5433 5435 5441 5442 5442 5449 5459 5467 5475 5483 5490 5497 5504 5514 5525 5532 5539 5546 5551 5555 5558 5562 5569 5577 5582 5585 5590 5594 5599 5603 5609 5613 5617 5621 5624 5627 5630 5634 5637 5640 5642 5646 5650 5653 5655 5659 5662 5665 5668 5670 5670 5673 5683 5690 5692 5692 5694 5698 5700 5702 5704 5707 5710 5710 5714 5721 5723 5721 5722 5721 5717 5716 5717 5717 5714 5713 5713 5714 5716 5718 5718 5719